Find Gals 1

NORAD ID: 22963 Int'l Des: 1994-002 Owner: INFK/LAND Country: RU operational
HEOCIRCULARGSO

Live Position

Loading 3D Globe...

About Gals 1

Description loading...

Upcoming Passes

Passes for default location (London). Set your location on the main map for personalized predictions.

Altitude History

Loading altitude history...

Two-Line Element Set

1 22963U 94002A 26109.23531912 .00000111 00000-0 00000-0 0 9994
2 22963 14.5370 354.3023 0010235 239.5749 100.1740 1.00321816118111
Epoch: Apr 19, 2026 • Age: 16 hours

Current Status

Altitude 35733.3 km
Velocity 3.08 km/s
Sub-Earth Point -8.97°S, 41.18°E
Launch Date Jan 20, 1994
Age 32.2 years
Type other

Technical Details

Classification Payload
Mass 2600.00 kg
Dry Mass 2400.00 kg
Total Mass 2600.00 kg
Length 6.60 m
Diameter 4.10 m
Span 10.00 m
Shape Cyl + 2 Pan
Manufacturer NPOPMR
Bus Type Gals
Phase Status Unknown Active Status
Owner/State INFK/LAND/RU

Most Searched